KZ1X Weather Reports


Display with metric or nautical units.
time (UTC)temp
F
wind
direction
speed
MPH
gust
MPH
rain 1hr
in
rain 24hr
in
rain mn
in
humidity
%
barometer
mb
20260505003048 66 0 0.0 0.0 0.00 0.00 0.00 53 1013.8
20260505001541 67 0 0.0 0.0 0.00 0.00 0.00 50 1013.7
20260505000053 68 0 0.0 0.0 0.00 0.00 0.00 48 1013.6
20260504234545 70 0 0.0 0.0 0.00 0.00 0.00 46 1013.4
20260504233049 71 0 0.0 0.0 0.00 0.00 0.00 44 1013.4
20260504231540 72 0 0.0 0.0 0.00 0.00 0.00 43 1013.4
20260504230046 73 0 0.0 1.0 0.00 0.00 0.00 45 1013.4
20260504224550 73 0 0.0 1.0 0.00 0.00 0.00 44 1013.3
20260504223042 74 0 0.0 2.0 0.00 0.00 0.00 43 1013.4
20260504221542 75 0 0.0 2.0 0.00 0.00 0.00 41 1013.3
20260504220040 75 271 0.0 1.0 0.00 0.00 0.00 40 1013.4
20260504214543 76 293 0.0 1.0 0.00 0.00 0.00 40 1013.4
20260504213034 77 238 0.0 2.0 0.00 0.00 0.00 39 1013.4
20260504211542 77 0 0.0 2.0 0.00 0.00 0.00 40 1013.4
20260504210055 78 158 0.0 2.0 0.00 0.00 0.00 37 1013.3
20260504204546 79 233 0.0 2.0 0.00 0.00 0.00 37 1013.3
20260504203042 79 0 1.0 3.0 0.00 0.00 0.00 34 1013.6
20260504201547 80 333 1.0 3.0 0.00 0.00 0.00 33 1013.7
20260504200051 80 278 0.0 2.0 0.00 0.00 0.00 33 1013.8
20260504194539 80 131 0.0 2.0 0.00 0.00 0.00 35 1014.1
20260504193042 80 243 1.0 3.0 0.00 0.00 0.00 34 1014.2
20260504191538 79 0 0.0 3.0 0.00 0.00 0.00 34 1014.4
20260504190042 80 0 1.0 3.0 0.00 0.00 0.00 36 1014.6
20260504184542 80 0 0.0 3.0 0.00 0.00 0.00 33 1014.8
20260504183041 80 0 0.0 2.0 0.00 0.00 0.00 32 1015.0
20260504181538 80 110 1.0 3.0 0.00 0.00 0.00 33 1015.3
20260504180037 80 282 0.0 2.0 0.00 0.00 0.00 34 1015.2
20260504174532 78 138 0.0 2.0 0.00 0.00 0.00 35 1015.4
20260504173042 78 92 0.0 3.0 0.00 0.00 0.00 33 1015.5
20260504171538 77 0 0.0 2.0 0.00 0.00 0.00 37 1015.4
20260504081544 43 0 0.0 0.0 0.00 0.00 0.00 85 1016.9
20260504044540 43 0 0.0 0.0 0.00 0.00 0.00 79 1017.6
20260504043049 43 0 0.0 0.0 0.00 0.00 0.00 81 1017.6
20260504041537 43 0 0.0 0.0 0.00 0.00 0.00 80 1017.7
20260504040036 44 0 0.0 0.0 0.00 0.00 0.00 80 1017.6
20260504034546 44 0 0.0 0.0 0.00 0.00 0.00 79 1017.7
20260504033040 45 0 0.0 0.0 0.00 0.00 0.00 79 1017.7
20260504031547 45 0 0.0 0.0 0.00 0.00 0.00 78 1017.5
20260504030050 45 0 0.0 0.0 0.00 0.00 0.00 75 1017.4
20260504024543 46 0 0.0 0.0 0.00 0.00 0.00 76 1017.4
20260504023042 46 0 0.0 0.0 0.00 0.00 0.00 75 1017.1
20260504021544 47 0 0.0 0.0 0.00 0.00 0.00 74 1017.1
20260504020038 47 0 0.0 0.0 0.00 0.00 0.00 73 1017.1
20260504014537 48 0 0.0 0.0 0.00 0.00 0.00 71 1017.1
20260504013038 49 0 0.0 0.0 0.00 0.00 0.00 69 1017.1
20260504011541 50 0 0.0 0.0 0.00 0.00 0.00 67 1017.1
20260504010052 51 0 0.0 0.0 0.00 0.00 0.00 65 1016.6
20260504004545 52 0 0.0 0.0 0.00 0.00 0.00 60 1016.5